Flag for Turkey Weather past 2 weeks in Istanbul, Turkey

Now
79 °F

Passing clouds.


Feels Like: 81 °F
Forecast: 78 / 89 °F
Wind: 14 mph from North

Location: Istanbul Ataturk Airport

Current Time: Jul 31, 2015 at 2:27:12 AM

Latest Report: Jul 31, 2015 at 1:50 AM


Visibility: N/A

Pressure: 29.74 "Hg

Humidity: 74%

Dew point: 70 °F

Location of IstanbulLocation

Historic Weather in Istanbul — Graph

°F

Istanbul temperature yesterday

Maximum temperature yesterday: 97 °F (at 2:20 PM)
Minimum temperature yesterday: 75 °F (at 6:20 AM)
Average temperature yesterday: 86 °F

Past Weeks' High & Low Weather Summary

 TemperatureHumidityPressure
High97 °F (Jul 28, 4:50 PM)89% (Jul 25, 6:50 AM)30.09 "Hg (Jul 25, 6:50 AM)
Low72 °F (Jul 16, 2:50 AM)20% (Jul 28, 6:50 PM)29.71 "Hg (Jul 26, 7:20 PM)
Average80 °F57%29.87 "Hg
* Reported Jul 16 12:20 AM — Jul 31 12:50 AM, Istanbul, Weather by CustomWeather, © 2015

Note: Actual official high and low records may vary slightly from our data, if they occured in-between our weather recording intervals... More about our weather records

Advertising

Istanbul weather history for previous 24 hours

 ConditionsComfort  
Time TempWeatherWind HumidityBarometerVisibility
12:50 AM
Fri, Jul 31
79 °FClear.16 mph74%29.74 "Hg10 mi
12:20 AM79 °FClear.17 mph74%29.74 "Hg10 mi
11:50 PM
Thu, Jul 30
79 °FClear.17 mph74%29.74 "Hg10 mi
11:20 PM81 °FPassing clouds.14 mph70%29.74 "HgN/A
10:50 PM81 °FPassing clouds.14 mph70%29.74 "HgN/A
10:20 PM81 °FPassing clouds.14 mph66%29.74 "HgN/A
9:50 PM82 °FPassing clouds.12 mph62%29.74 "HgN/A
9:20 PM82 °FPassing clouds.13 mph62%29.74 "HgN/A
8:50 PM84 °FPassing clouds.10 mph55%29.74 "HgN/A
8:20 PM86 °FPassing clouds.10 mph52%29.74 "HgN/A
7:50 PM88 °FPassing clouds.13 mph46%29.74 "HgN/A
7:20 PM88 °FPassing clouds.14 mph46%29.71 "HgN/A
6:50 PM90 °FSunny.13 mph41%29.71 "Hg10 mi
6:20 PM91 °FSunny.15 mph38%29.71 "Hg10 mi
5:50 PM91 °FSunny.17 mph36%29.71 "Hg10 mi
5:20 PM93 °FPassing clouds.17 mph32%29.71 "HgN/A
4:50 PM93 °FPassing clouds.17 mph30%29.71 "HgN/A
4:20 PM95 °FSunny.16 mph28%29.71 "Hg10 mi
3:50 PM97 °FPassing clouds.16 mph27%29.71 "HgN/A
3:20 PM97 °FPassing clouds.14 mph30%29.71 "HgN/A
2:50 PM97 °FPassing clouds.16 mph25%29.74 "HgN/A
2:20 PM97 °FSunny.14 mph27%29.74 "Hg10 mi
1:50 PM95 °FPassing clouds.14 mph26%29.74 "HgN/A
1:20 PM95 °FPassing clouds.12 mph36%29.74 "HgN/A
12:50 PM93 °FSunny.12 mph41%29.74 "Hg10 mi
12:20 PM93 °FSunny.9 mph41%29.77 "Hg10 mi
11:50 AM91 °FSunny.9 mph46%29.77 "Hg10 mi
11:20 AM90 °FSunny.9 mph52%29.77 "Hg10 mi
10:50 AM90 °FSunny.12 mph52%29.77 "Hg10 mi
10:20 AM88 °FSunny.9 mph55%29.77 "Hg10 mi
9:50 AM86 °FPassing clouds.12 mph59%29.77 "HgN/A
9:20 AM86 °FPassing clouds.12 mph59%29.77 "HgN/A
8:50 AM84 °FPassing clouds.14 mph62%29.77 "HgN/A
8:20 AM82 °FPassing clouds.15 mph66%29.77 "HgN/A
7:50 AM81 °FPassing clouds.16 mph70%29.77 "HgN/A
7:20 AM81 °FPassing clouds.13 mph70%29.77 "HgN/A
6:50 AM77 °FClear.14 mph79%29.74 "Hg10 mi
6:20 AM75 °FClear.13 mph78%29.74 "Hg10 mi
5:50 AM77 °FClear.9 mph74%29.74 "Hg10 mi
5:20 AM79 °FClear.9 mph70%29.74 "Hg10 mi
4:50 AM79 °FClear.10 mph70%29.74 "Hg10 mi
4:20 AM79 °FClear.13 mph70%29.74 "Hg10 mi
3:50 AM79 °FClear.9 mph70%29.74 "Hg10 mi
3:20 AM79 °FClear.12 mph70%29.74 "Hg10 mi
2:50 AM79 °FClear.10 mph70%29.77 "Hg10 mi
2:20 AM81 °FPassing clouds.10 mph66%29.77 "HgN/A
Weather by CustomWeather, © 2015

See weather overviewHow to use our weather pages